World > North America > United States > Mississippi > Bowdre  

Bowdre, MS Hourly Weather Updates

Feedback E-mail the Weather

Quick Clicks

Bowdre, MS Weather Maps

°F °C°F °C
Bowdre Weather Map
UTC Time: 4/16/2024, 23:57
Your Time:

Bowdre, MS Regional Weather

Expires:202404170000;;865779
ASUS44 KJAN 162310
RWRMS 

MISSISSIPPI HOURLY WEATHER ROUNDUP
NATIONAL WEATHER SERVICE JACKSON MS
600 PM CDT TUE APR 16 2024

NOTE: "FAIR: INDICATES FEW OR NO CLOUDS BELOW 12,000 FEET WITH NO
SIGNIFICANT WEATHER AND/OR OBSTRUCTIONS TO VISIBILITY.


MSZ001>002-007>008-010>013-018>021-025>028-034>036-170000-
NORTHWEST MISSISSIPPI
  
CITY           SKY/WX    TMP DP  RH WIND       PRES   REMARKS
CLARKSDALE       N/A     81  81 100 S16G28    29.87R HX  91           
GREENWOOD      CLOUDY    81  65  58 S7        29.91R                  
GREENVILLE     CLOUDY    82  64  54 S20G30    29.85F                  
OLIVE BRANCH   PTSUNNY   79  61  53 S13G23    29.85F                  
OXFORD         CLOUDY    79  57  47 S10G20    29.92R                  
TUNICA         CLOUDY    79  65  63 S20       29.85R                  
WINONA         CLOUDY    78  63  58 S7        29.92R                  
$$


SKY/WX - Weather  TMP - Temperature  DP - Dew Point  RH - Humidity
WIND - Wind Direction/Speed PRES - Barometric Pressure VSB - Visibility
WCI - Wind Chill Index E13G22 Wind - East Wind 13 mph/Gusts of 22 mph

Trending Headlines

Trending Entertainment Headlines

Bowdre Radar Loop

Use the map search tool if you want to place a location marker on the radar map...

Bowdre Quick Facts

National Two Day Weather Forecast


E-mail the Bowdre Weather Forecast

Voice your opinion or tell us about page issues...